Orbital elements:
    C/2001 RX14 (LINEAR)
Epoch 2003 Jan. 1.0 TT = JDT 2452640.5
T 2003 Jan. 18.70035 TT                                 MPC
q   2.0576128            (2000.0)            P               Q
z  -0.0007948      Peri.  121.48388     -0.68610440     -0.71676801
 +/-0.0000029      Node    14.16980     +0.36330025     -0.48585749
e   1.0016354      Incl.   30.57419     +0.63029650     -0.50018609
Residuals in seconds of arc
010828 699  0.1+  0.3+    011027 704  0.3-  0.1+    020302 232 (3.8+  2.5+)
010828 644  0.2+  0.1+    011027 704  0.8-  0.9+    020309 360  0.4+  0.3-
010828 699  0.2-  0.5+    011027 704  1.6-  1.2-    020309 360  0.4+  0.2-
010828 644  0.4+  0.1+    011028 170  0.2+  1.0+    020309 367  0.6+  0.1+
010828 699  0.8+  0.5+    011028 170  0.2+  1.4+    020309 367  0.7+  0.1+
010828 644  0.2+  0.2+    011102 118  0.1+  0.2-    020309 367  0.8+  0.2+
010828 699  0.6-  0.2-    011102 118  0.1-  0.1-    020618 349  1.6-  0.0
010910 704  0.5+  0.1+    011103 170  0.5+  0.4-    020618 349  1.7-  0.1+
010910 704  0.2+  1.0-    011103 170  0.6+  0.3+    020618 349 (2.1-  0.8-)
010910 704  0.4+  0.1-    011103 170  0.2+  0.9+    020703 599  0.4+  0.8-
010910 704  0.3+  0.4-    011103 213  0.1+  0.8+    020703 599  0.4+  0.3-
010910 704  0.0   0.2-    011103 213  0.0   0.7+    020703 599  0.9-  1.3-
010911 704  0.2+  0.3-    011103 213  0.7+  0.6+    020703 599  0.6-  0.1-
010911 704  0.4+  0.0     011103 213  0.9-  0.1-    020707 349  0.7+  0.0
010911 704  0.4+  0.0     011104 213 (2.0-  0.5-)   020707 349  0.0   0.2+
010911 704  0.2+  0.2+    011104 151  0.1+  0.1-    020707 349  0.8+  0.2+
010911 704  0.3+  0.6+    011104 213  0.5+  0.3+    020711 349  0.8-  0.1+
010918 644  0.2-  0.1+    011104 151  0.2+  0.1+    020711 349  0.7+  0.6+
010918 644  0.3-  0.2+    011104 213  0.2+  0.5+    020711 349  0.3+  0.8+
010918 644  0.4-  0.2+    011104 151  0.2+  0.2-    020711 349  0.5-  0.6+
010919 699  0.9+  0.1+    011104 151  0.0   0.1-    020720 349  0.4+  0.3+
010919 699  0.4+  0.3+    011104 213  0.2-  0.2-    020720 349  0.0   0.5+
010919 699  0.1+  0.1+    011104 213  0.5+  1.2-    020720 349  0.7-  0.2+
010919 699  0.9+  0.1+    011107 341  0.2-  0.4-    020723 340  1.0-  0.9-
010925 704  1.3+  0.1+    011107 341  0.1-  0.5-    020723 340  0.1+  0.3-
010925 704  0.3+  0.3+    011107 341  0.1+  0.1-    020723 340  0.4-  0.0
010925 704  1.1+  1.0+    011107 341  0.2-  0.4-    020723 340  1.4-  0.3-
010925 704  1.1+  0.6-    011107 170  0.0   0.0     020727 170  0.2-  0.3-
010925 704  1.2+  0.0     011107 170  0.3-  0.7+    020727 170  0.4-  0.7+
010926 704  0.2+  0.0     011108 322  0.2-  0.4-    020729 349  0.2+  0.9-
010926 704  0.2-  0.1+    011108 322  0.6-  0.5-    020729 349  0.2-  0.6+
010926 704  0.6-  0.2+    011108 322  0.6-  0.9+    020729 349  0.1+  0.4-
010926 704  0.4-  0.2+    011109 213  1.5-  0.5-    020729 349  0.0   0.2-
010926 704  1.1-  0.3+    011109 213  0.1-  0.1+    020802 349  0.9-  0.4+
011013 699  0.4+  0.3-    011110 704  0.1+  0.2+    020802 349  0.4-  0.3+
011013 699  0.0   0.1+    011110 704  0.2-  0.1-    020805 349  0.4-  1.0-
011013 699  0.4+  0.1+    011110 704  0.1-  0.1+    020805 349  0.3-  0.9+
011013 699  0.1+  0.1-    011110 704  0.5-  0.2+    020806 939  0.7-  0.0
011013 644  0.1+  0.1-    011110 704  1.0-  0.0     020806 939  0.5-  0.1+
011013 644  0.2-  0.2-    011114 402  0.2+  0.1+    020806 939  0.3-  0.2+
011013 644  0.2-  0.1+    011114 402  0.3+  0.2-    020806 340  2.0-  0.6+
011014 678  1.0+  0.9+    011114 402  0.2+  0.1-    020806 340 (2.1-  0.3+)
011014 678  0.5-  0.8+    011118 170  0.0   0.2-    020806 340  0.2+  0.2+
011014 678  0.4+  0.5+    011118 170  0.6+  0.3+    020806 340  0.3-  0.3+
011018 704  0.2+  0.2-    011118 213 (2.2+  1.4-)   020807 349  0.1-  0.2-
011018 704  0.0   0.1-    011118 213  0.8+  0.3-    020807 349  0.1+  0.2-
011018 704  0.1+  0.5-    011118 213  0.0   0.8-    020807 349  0.7+  0.2+
011018 678  0.9-  1.1-    011118 213  0.1-  1.9+    020807 349  0.4+  0.7-
011018 704  0.2-  0.4-    011119 644  0.1-  0.2+    020808 349  0.4-  0.3+
011018 704  0.8-  0.2-    011119 644  0.0   0.1+    020808 349  0.5-  0.3-
011018 678  0.2+  1.3-    011119 644  0.1+  0.2+    020808 349  0.0   0.3-
011018 678  1.4+  0.4-    011119 349  0.8+  0.0     020808 349  0.4-  0.3+
011018 678  0.3-  1.4-    011119 349  0.2+  0.0     020809 349  0.2-  0.1+
011018 678  0.4-  1.4-    011119 349  0.1+  0.2-    020809 349  0.4-  0.0
011018 046  0.3-  1.1-    011119 349  0.5+  0.2+    020809 349  0.2-  0.6+
011018 046  0.1-  0.8-    011119 213  0.3-  0.5-    020809 349  0.1+  0.3+
011018 046  0.9-  0.2+    011119 213  0.4-  0.6-    020810 349  0.3-  0.1+
011018 595  0.2+  0.1+    011119 213  0.3-  0.5+    020810 349  0.4+  0.0
011018 595  0.3-  0.4+    011120 699  0.1-  0.3-    020810 349  0.1-  0.1+
011018 595  0.3-  0.5+    011120 699  0.0   0.3-    020810 349  0.2-  0.0
011019 422  0.3+  0.7-    011120 699  0.3-  0.2-    020811 213  1.1-  0.4-
011019 422  0.1+  0.1+    011120 699  0.3-  0.2-    020811 170  0.8-  0.6-
011019 046  0.4+  0.3+    011120 360  0.0   0.0     020811 213  1.4-  0.4-
011019 636  0.3-  0.4-    011120 360  0.0   0.1+    020813 349  0.8-  0.4+
011019 046  0.5+  0.3+    011120 360  0.3-  0.1-    020813 349  0.2+  0.3+
011019 046  0.3-  0.3+    011120 170  0.1+  0.1-    020813 349  0.1+  0.3+
011019 636  0.4+  0.3-    011120 170  0.1-  0.1+    020813 349  0.2-  0.5-
011019 046  0.4+  0.0     011121 402  0.4-  0.0     020814 235  1.3+  1.4+
011019 636  1.1+  0.1-    011121 402  0.1-  0.1-    020814 170  0.1+  0.4+
011019 636  1.6+  0.3-    011121 402  0.1-  0.4-    020814 170  0.7-  0.1+
011019 198  0.5+  0.1-    011121 342  0.5+  0.1+    020814 355  0.9-  0.1-
011019 198  0.5+  0.1+    011121 342  0.4+  0.3+    020814 355  0.8-  0.1+
011019 151  0.5-  0.5+    011121 213  1.8-  0.5+    020814 355  0.8-  0.0
011019 151  0.2-  0.1+    011121 213  0.3+  0.2+    020815 215  0.1+  0.3+
011019 151  0.1-  0.2+    011121 213  0.8-  0.3+    020815 215  0.1-  0.3+
011019 198  0.4+  0.5+    011122 867  0.2+  0.0     020815 215  0.1+  0.4+
011019 151  0.1-  0.3+    011122 867  0.1+  0.1+    020815 204  0.2-  0.5+
011019 557  0.3+  0.0     011122 867  0.1+  0.0     020815 204  0.3-  0.4+
011019 157  0.1+  0.3-    011122 213  0.5+  0.4-    020815 204  0.3-  0.7+
011019 157  0.3-  0.2+    011122 213  1.8-  0.4-    020818 A46  1.3+  0.2-
011019 157  0.2-  0.8+    011122 170  0.2-  0.3-    020818 A46  0.8+  0.3+
011019 557  0.1+  0.1-    011123 232  0.8-  0.5+    020818 A46  0.4+  0.0
011019 557  0.2+  0.2-    011123 232  0.9-  0.2-    020818 A46  0.6+  0.1-
011020 850  0.3-  0.3+    011124 903  0.1+  0.4-    020818 A46  0.6+  0.1+
011020 850  0.1-  0.1-    011124 903  1.3-  1.3-    020818 A46  0.7+  0.6-
011020 850  0.2+  0.2+    011124 903  0.9-  0.2+    020818 A46  0.6+  0.2+
011020 642  0.7+  0.1+    011124 213  0.2-  0.1-    020818 A46  1.5+  0.4+
011020 642  1.7-  0.1+    011124 213  1.2+  0.4+    020818 170  1.2+  0.7-
011020 642  0.1+  0.1-    011128 170  0.5+  1.1-    020818 170  1.0+  0.2-
011020 850  0.1+  0.2+    011128 170  0.4-  0.0     020818 232  0.2-  0.1+
011020 608 (0.9-  4.1-)   011128 170  0.5+  0.0     020818 232  0.2+  0.3+
011020 608 (0.4-  3.4-)   011128 213  1.0+  0.4+    020818 213  0.8+  0.2+
011020 608  0.4-  0.6-    011128 213  0.1-  0.4+    020818 213  1.0+  0.2-
011020 946  0.1-  0.2+    011128 213  0.2-  0.7+    020818 213  0.6+  0.1-
011020 946  0.5+  0.7-    011205 170  0.5-  0.1-    020820 349  0.4-  0.2-
011020 946  0.6+  0.7-    011205 170  0.7+  0.3+    020820 349  0.3-  0.0
011021 850  0.4-  0.2+    011207 232  1.0-  0.6+    020820 349  0.3-  0.3-
011021 850  0.0   0.1-    011207 232  0.1-  0.2-    020820 349  0.1-  0.1+
011021 850  0.4+  0.1+    011209 213  1.8-  0.7+    020821 170  0.2+  0.5-
011021 850  0.1+  0.2+    011209 213  1.4-  1.1+    020821 170  0.1-  0.0
011021 850  0.2-  0.1-    011213 170  0.6-  0.1+    020821 170  0.6-  0.2-
011021 850  0.9+  0.8+    011214 704  1.5+  0.6+    020828 J91  1.2+  0.0
011021 850  0.6+  0.0     011214 704  0.8+  0.3-    020828 J91  1.2+  0.1-
011021 165 (3.9-  2.6-)   011214 704  0.3+  1.0-    020828 379  0.1-  0.4+
011021 165  0.9+  1.2-    011214 704  1.6-  2.0+    020828 379  1.6-  0.5-
011021 165  0.4+  1.7-    011214 704  1.9-  1.1-    020829 445  1.5-  0.3+
011021 165 (2.8+  0.2-)   011218 360  0.2-  0.1+    020829 445  0.9-  0.3-
011022 850  0.4+  0.0     011218 360  0.4-  0.1+    020829 445  1.7-  0.3-
011022 850  0.0   0.3+    011221 213  0.2+  0.3+    020829 445  1.6-  0.8+
011022 850  0.4+  0.3+    011221 213  0.2-  0.2+    020829 445  0.4-  0.6-
011022 850  0.0   0.2+    011221 213  0.3-  1.8+    020829 379  0.5-  0.0
011022 850  0.2+  0.1-    011222 213  0.3+  0.3+    020829 379  0.4-  0.3-
011022 213  1.0-  0.6-    011222 213  0.2-  1.4+    020830 445  0.6-  1.7+
011022 213  1.2-  0.5-    011222 213  0.9-  0.7+    020830 445  0.7-  0.4+
011022 213  0.9-  0.7-    011222 213  1.4-  0.7+    020901 J95  0.2+  0.0
011022 118  0.5+  0.1+    020101 349  0.1-  0.6-    020901 J95  0.1-  0.0
011022 213  1.4+  0.2-    020101 349  0.4+  0.1-    020901 J95  0.1-  0.2+
011022 118  0.1+  0.1-    020101 349  0.6+  1.2-    020901 J95  0.4+  0.1+
011022 213  0.6-  0.8-    020101 349  0.3+  0.6-    020901 232  0.0   1.3+
011022 118  0.1-  0.2-    020102 159  0.5+  0.0     020901 232  0.3-  0.6+
011022 213  0.4-  0.6-    020102 159  0.1-  0.0     020901 232  0.7+  0.7+
011023 859  0.1+  0.3-    020102 159  0.4+  0.1+    020903 A46  0.2+  0.4-
011023 859  0.5+  0.1+    020102 159  0.0   0.2+    020903 A46  0.2-  0.0
011023 859  0.3+  0.3-    020103 349  0.4-  0.8+    020903 A46  0.3+  0.1-
011023 859  0.6+  0.1+    020103 349  0.1-  0.3+    020903 A46  0.2+  0.1+
011023 670  1.9+  0.5+    020103 349  0.3+  0.2+    020903 A46  0.9+  0.3-
011023 670  0.6-  0.1-    020103 349  0.2+  0.5+    020903 A46  0.0   0.5-
011023 696  0.2-  0.0     020105 215  0.0   0.1+    020903 A46  0.7+  0.4-
011023 696  0.1-  0.0     020105 215  0.1-  0.1+    020903 A46  0.6+  0.2+
011023 696  0.1-  0.0     020105 215  0.1-  0.4-    020903 A46  0.8+  0.0
011023 696  0.2-  0.0     020107 170  0.1-  0.6+    020903 A46  0.4+  0.0
011023 678  0.3-  0.9-    020112 232  0.5+  0.0     020903 A46  0.8+  0.1+
011023 678  0.5-  0.9-    020112 232 (2.0+  2.6+)   020903 A46  0.1-  0.3+
011023 678  0.9-  0.3+    020113 360  0.1-  0.3+    020903 A46  0.4+  0.7-
011023 678  1.0-  0.7-    020113 360  0.2-  0.4+    020903 613  0.0   0.2+
011023 678  0.8-  0.5-    020115 458  0.6-  0.5+    020903 613  0.3-  0.1-
011023 402  0.1+  0.1-    020115 458  1.5-  0.1+    020903 613  0.0   0.1+
011023 402  0.1+  0.1-    020116 170  0.3+  0.4-    020904 A46  0.8+  0.8-
011023 402  0.0   0.1+    020119 213  0.5-  1.4+    020904 A46  0.8+  1.5-
011023 402  0.0   0.1+    020119 213  0.2-  1.6+    020904 A46  0.6+  1.2-
011023 118  0.3+  0.2-    020119 213  1.2-  1.0+    020904 A46  0.0   1.1-
011023 118  0.3-  0.6-    020119 213  0.4-  0.7+    020904 A46  0.1+  0.6-
011023 118  0.2-  0.2-    020126 170  0.8+  0.1+    020904 A46  0.3-  0.5-
011024 860  0.4-  1.4-    020126 170  0.2+  0.6-    020904 A46  0.5+  0.0
011024 860  0.7-  1.1-    020126 170 (2.7+  0.6+)   020904 A46  0.4-  0.0
011024 860  0.2-  1.9-    020128 458  1.4+  1.7-    020904 A46  0.6+  0.0
011024 860 (0.0   2.2-)   020128 458  0.3-  1.1+    020904 A46  0.1-  0.0
011024 860 (1.7+  3.0-)   020128 458  0.8+  0.2+    020904 A46  0.5+  0.0
011024 704  0.1-  0.0     020129 461  0.0   0.0     020904 A46  0.2+  0.0
011024 704  0.5-  0.1-    020129 461  0.1+  0.3-    020904 A46  0.0   0.1-
011024 704  0.2-  0.2+    020129 461  0.0   0.3+    020904 A46  0.3+  0.1-
011024 649  0.1-  0.0     020129 461  0.1+  0.4+    020904 A46  0.7+  0.1-
011024 704  0.5-  0.0     020201 232  0.3+  0.0     020905 A46  0.4+  0.4-
011024 649  0.1-  0.1+    020201 232  1.4+  0.2-    020905 A46  0.6+  0.2-
011024 704  0.4-  0.2+    020202 232  1.0-  0.5+    020905 A46  0.5+  0.1+
011024 649  0.2+  0.1-    020202 232  1.0-  0.3+    020905 A46  0.0   0.4-
011024 213  0.7-  0.2-    020203 113  1.4+  0.4+    020905 A46  0.4+  0.3-
011024 213  0.1+  0.1-    020203 113  0.6+  0.0     020905 A46  0.5+  0.4-
011024 213  0.1-  0.7-    020203 113  0.5+  0.5+    020905 A46  0.1+  0.1+
011024 213  1.3-  0.7-    020206 402  0.3+  0.1+    020905 A46  0.4+  0.2-
011024 213  0.4-  0.7-    020206 402  0.2+  0.1-    020905 A46  0.1+  0.1+
011025 711  0.0   0.8+    020206 402  0.5+  0.1-    020905 A46  0.1+  0.0
011025 711  0.2-  0.5+    020207 360  0.2+  0.1-    020905 A46  0.0   0.1-
011025 711  0.3-  0.5+    020207 360  0.2+  0.1-    020905 A46  0.1-  0.3+
011025 651  0.1+  0.8+    020208 941  1.3+  0.3+    020905 A46  0.0   0.2-
011025 651  0.3-  0.5+    020208 941  0.8+  0.3+    020905 A46  0.1-  0.2+
011025 651  0.0   0.1+    020208 941  0.9+  0.4+    020905 445  0.7-  0.2-
011025 402  0.1+  0.1+    020208 941  1.5+  0.3+    020905 445  1.0-  1.2-
011025 402  0.2+  0.0     020210 349  0.6+  0.1-    020905 445  0.8-  0.2-
011025 402  0.2+  0.3-    020210 349  0.5+  0.4+    020905 445 (2.1-  0.1-)
011026 402  0.2+  0.0     020210 349  0.8+  0.6+    020907 170  1.0+  0.6-
011026 402  0.0   0.2-    020210 349  1.2+  0.2-    020907 170  0.1-  0.7-
011026 402  0.3+  0.0     020224 587  0.7+  0.0     020907 235  0.2-  1.3+
011027 704  0.3-  0.0     020224 587  0.0   0.1-
011027 704  0.9-  0.4-    020302 232  1.5+  0.4-

